Time,TemperatureF,DewpointF,PressureIn,WindDirection,WindDirectionDegrees,WindSpeedMPH,WindSpeedGustMPH,Humidity,HourlyPrecipIn,Conditions,Clouds,dailyrainin,SolarRadiationWatts/m^2,SoftwareType,DateUTC
2013-05-31 00:12:00,74.0,63.0,-100.00,South,173,3.0,7.0,68,0.00,,,0.00,0.000000,,2013-05-31 04:12:00,
2013-05-31 00:23:00,74.0,63.0,-100.00,South,173,3.0,7.0,68,0.00,,,0.00,0.000000,,2013-05-31 04:23:00,
2013-05-31 00:33:00,74.0,63.0,-100.00,South,173,3.0,7.0,68,0.00,,,0.00,0.000000,,2013-05-31 04:33:00,
2013-05-31 00:42:00,74.0,63.0,-100.00,South,173,3.0,7.0,68,0.00,,,0.00,0.000000,,2013-05-31 04:42:00,
2013-05-31 00:53:00,74.0,63.0,-100.00,South,173,3.0,7.0,68,0.00,,,0.00,0.000000,,2013-05-31 04:53:00,
2013-05-31 01:22:00,72.0,62.0,-100.00,South,189,3.0,7.0,71,0.00,,,0.00,0.000000,,2013-05-31 05:22:00,
2013-05-31 01:32:00,72.0,62.0,-100.00,South,189,3.0,7.0,71,0.00,,,0.00,0.000000,,2013-05-31 05:32:00,
2013-05-31 01:42:00,72.0,62.0,-100.00,South,189,3.0,7.0,71,0.00,,,0.00,0.000000,,2013-05-31 05:42:00,
2013-05-31 01:52:00,72.0,62.0,-100.00,South,189,3.0,7.0,71,0.00,,,0.00,0.000000,,2013-05-31 05:52:00,
2013-05-31 02:12:00,72.0,62.0,-100.00,SSE,163,4.0,9.0,72,0.00,,,0.00,0.000000,,2013-05-31 06:12:00,
2013-05-31 02:22:00,72.0,62.0,-100.00,SSE,163,4.0,9.0,72,0.00,,,0.00,0.000000,,2013-05-31 06:22:00,
2013-05-31 02:32:00,72.0,62.0,-100.00,SSE,163,4.0,9.0,72,0.00,,,0.00,0.000000,,2013-05-31 06:32:00,
2013-05-31 02:42:00,72.0,62.0,-100.00,SSE,163,4.0,9.0,72,0.00,,,0.00,0.000000,,2013-05-31 06:42:00,
2013-05-31 02:51:00,72.0,62.0,-100.00,SSE,163,4.0,9.0,72,0.00,,,0.00,0.000000,,2013-05-31 06:51:00,
2013-05-31 03:21:00,71.0,62.0,-100.00,SSE,155,3.0,8.0,73,0.00,,,0.00,0.000000,,2013-05-31 07:21:00,
2013-05-31 03:32:00,71.0,62.0,-100.00,SSE,155,3.0,8.0,73,0.00,,,0.00,0.000000,,2013-05-31 07:32:00,
2013-05-31 03:42:00,71.0,62.0,-100.00,SSE,155,3.0,8.0,73,0.00,,,0.00,0.000000,,2013-05-31 07:42:00,
2013-05-31 03:52:00,71.0,62.0,-100.00,SSE,155,3.0,8.0,73,0.00,,,0.00,0.000000,,2013-05-31 07:52:00,
2013-05-31 04:22:00,70.0,62.0,-100.00,SE,138,4.0,8.0,77,0.00,,,0.00,0.000000,,2013-05-31 08:22:00,
2013-05-31 04:32:00,70.0,62.0,-100.00,SE,138,4.0,8.0,77,0.00,,,0.00,0.000000,,2013-05-31 08:32:00,
2013-05-31 04:42:00,70.0,62.0,-100.00,SE,138,4.0,8.0,77,0.00,,,0.00,0.000000,,2013-05-31 08:42:00,
2013-05-31 04:51:00,70.0,62.0,-100.00,SE,138,4.0,8.0,77,0.00,,,0.00,0.000000,,2013-05-31 08:51:00,
2013-05-31 05:21:00,68.0,63.0,-100.00,SE,136,3.0,7.0,83,0.00,,,0.00,0.000000,,2013-05-31 09:21:00,
2013-05-31 05:32:00,68.0,63.0,-100.00,SE,136,3.0,7.0,83,0.00,,,0.00,0.000000,,2013-05-31 09:32:00,
2013-05-31 05:43:00,68.0,63.0,-100.00,SE,136,3.0,7.0,83,0.00,,,0.00,0.000000,,2013-05-31 09:43:00,
2013-05-31 05:53:00,68.0,63.0,-100.00,SE,136,3.0,7.0,83,0.00,,,0.00,0.000000,,2013-05-31 09:53:00,
2013-05-31 06:23:00,67.0,63.0,-100.00,SE,135,3.0,8.0,86,0.00,,,0.00,0.000000,,2013-05-31 10:23:00,
2013-05-31 06:33:00,67.0,63.0,-100.00,SE,135,3.0,8.0,86,0.00,,,0.00,0.000000,,2013-05-31 10:33:00,
2013-05-31 06:42:00,67.0,63.0,-100.00,SE,135,3.0,8.0,86,0.00,,,0.00,0.000000,,2013-05-31 10:42:00,
2013-05-31 06:52:00,67.0,63.0,-100.00,SE,135,3.0,8.0,86,0.00,,,0.00,0.000000,,2013-05-31 10:52:00,
2013-05-31 07:22:00,68.0,63.0,-100.00,SE,138,4.0,7.0,83,0.00,,,0.00,14.000000,,2013-05-31 11:22:00,
2013-05-31 07:32:00,68.0,63.0,-100.00,SE,138,4.0,7.0,83,0.00,,,0.00,14.000000,,2013-05-31 11:32:00,
2013-05-31 07:42:00,68.0,63.0,-100.00,SE,138,4.0,7.0,83,0.00,,,0.00,14.000000,,2013-05-31 11:42:00,
2013-05-31 07:52:00,68.0,63.0,-100.00,SE,138,4.0,7.0,83,0.00,,,0.00,14.000000,,2013-05-31 11:52:00,
2013-05-31 08:22:00,73.0,63.0,-100.00,SSE,163,5.0,12.0,72,0.00,,,0.00,73.000000,,2013-05-31 12:22:00,
2013-05-31 08:32:00,73.0,63.0,-100.00,SSE,163,5.0,12.0,72,0.00,,,0.00,73.000000,,2013-05-31 12:32:00,
2013-05-31 08:42:00,73.0,63.0,-100.00,SSE,163,5.0,12.0,72,0.00,,,0.00,73.000000,,2013-05-31 12:42:00,
2013-05-31 08:52:00,73.0,63.0,-100.00,SSE,163,5.0,12.0,72,0.00,,,0.00,73.000000,,2013-05-31 12:52:00,
2013-05-31 09:21:00,74.0,63.0,-100.00,South,181,7.0,14.0,69,0.00,,,0.00,86.000000,,2013-05-31 13:21:00,
2013-05-31 09:32:00,74.0,63.0,-100.00,South,181,7.0,14.0,69,0.00,,,0.00,86.000000,,2013-05-31 13:32:00,
2013-05-31 09:42:00,74.0,63.0,-100.00,South,181,7.0,14.0,69,0.00,,,0.00,86.000000,,2013-05-31 13:42:00,
2013-05-31 09:52:00,74.0,63.0,-100.00,South,181,7.0,14.0,69,0.00,,,0.00,86.000000,,2013-05-31 13:52:00,
2013-05-31 10:22:00,77.0,64.0,-100.00,SSW,197,7.0,17.0,65,0.00,,,0.00,224.000000,,2013-05-31 14:22:00,
2013-05-31 10:32:00,77.0,64.0,-100.00,SSW,197,7.0,17.0,65,0.00,,,0.00,224.000000,,2013-05-31 14:32:00,
2013-05-31 10:42:00,77.0,64.0,-100.00,SSW,197,7.0,17.0,65,0.00,,,0.00,224.000000,,2013-05-31 14:42:00,
2013-05-31 10:52:00,77.0,64.0,-100.00,SSW,197,7.0,17.0,65,0.00,,,0.00,224.000000,,2013-05-31 14:52:00,
2013-05-31 11:21:00,80.0,65.0,-100.00,South,184,8.0,17.0,61,0.00,,,-99.99,362.000000,,2013-05-31 15:21:00,
2013-05-31 11:33:00,80.0,65.0,-100.00,South,184,8.0,17.0,61,0.00,,,-99.99,362.000000,,2013-05-31 15:33:00,
2013-05-31 11:43:00,80.0,65.0,-100.00,South,184,8.0,17.0,61,0.00,,,-99.99,362.000000,,2013-05-31 15:43:00,
2013-05-31 11:53:00,80.0,65.0,-100.00,South,184,8.0,17.0,61,0.00,,,-99.99,362.000000,,2013-05-31 15:53:00,
2013-05-31 12:12:00,81.0,65.0,-100.00,SSW,212,7.0,16.0,59,0.00,,,0.00,406.000000,,2013-05-31 16:12:00,
2013-05-31 12:22:00,81.0,65.0,-100.00,SSW,212,7.0,16.0,59,0.00,,,0.00,406.000000,,2013-05-31 16:22:00,
2013-05-31 12:33:00,81.0,65.0,-100.00,SSW,212,7.0,16.0,59,0.00,,,0.00,406.000000,,2013-05-31 16:33:00,
2013-05-31 12:42:00,81.0,65.0,-100.00,SSW,212,7.0,16.0,59,0.00,,,0.00,406.000000,,2013-05-31 16:42:00,
2013-05-31 12:52:00,81.0,65.0,-100.00,SSW,212,7.0,16.0,59,0.00,,,0.00,406.000000,,2013-05-31 16:52:00,
2013-05-31 13:22:00,81.0,66.0,-100.00,SSW,213,7.0,20.0,61,0.00,,,0.00,350.000000,,2013-05-31 17:22:00,
2013-05-31 13:32:00,81.0,66.0,-100.00,SSW,213,7.0,20.0,61,0.00,,,0.00,350.000000,,2013-05-31 17:32:00,
2013-05-31 13:42:00,81.0,66.0,-100.00,SSW,213,7.0,20.0,61,0.00,,,0.00,350.000000,,2013-05-31 17:42:00,
2013-05-31 13:52:00,81.0,66.0,-100.00,SSW,213,7.0,20.0,61,0.00,,,0.00,350.000000,,2013-05-31 17:52:00,
2013-05-31 14:22:00,81.0,66.0,-100.00,SSE,168,6.0,18.0,61,0.00,,,0.00,292.000000,,2013-05-31 18:22:00,
2013-05-31 14:32:00,81.0,66.0,-100.00,SSE,168,6.0,18.0,61,0.00,,,0.00,292.000000,,2013-05-31 18:32:00,
2013-05-31 14:42:00,81.0,66.0,-100.00,SSE,168,6.0,18.0,61,0.00,,,0.00,292.000000,,2013-05-31 18:42:00,
2013-05-31 14:52:00,81.0,66.0,-100.00,SSE,168,6.0,18.0,61,0.00,,,0.00,292.000000,,2013-05-31 18:52:00,
2013-05-31 15:22:00,69.0,66.0,-100.00,WSW,252,5.0,17.0,91,0.23,,,0.23,82.000000,,2013-05-31 19:22:00,
2013-05-31 15:32:00,69.0,66.0,-100.00,WSW,252,5.0,17.0,91,0.23,,,0.23,82.000000,,2013-05-31 19:32:00,
2013-05-31 15:42:00,69.0,66.0,-100.00,WSW,252,5.0,17.0,91,0.23,,,0.23,82.000000,,2013-05-31 19:42:00,
2013-05-31 15:52:00,69.0,66.0,-100.00,WSW,252,5.0,17.0,91,0.23,,,0.23,82.000000,,2013-05-31 19:52:00,
2013-05-31 16:22:00,71.0,69.0,-100.00,South,184,1.0,10.0,93,0.24,,,0.47,92.000000,,2013-05-31 20:22:00,
2013-05-31 16:32:00,71.0,69.0,-100.00,South,184,1.0,10.0,93,0.24,,,0.47,92.000000,,2013-05-31 20:32:00,
2013-05-31 16:42:00,71.0,69.0,-100.00,South,184,1.0,10.0,93,0.24,,,0.47,92.000000,,2013-05-31 20:42:00,
2013-05-31 16:52:00,71.0,69.0,-100.00,South,184,1.0,10.0,93,0.24,,,0.47,92.000000,,2013-05-31 20:52:00,
2013-05-31 17:22:00,69.0,67.0,-100.00,SSW,209,7.0,34.0,92,0.21,,,0.68,73.000000,,2013-05-31 21:22:00,
2013-05-31 17:33:00,69.0,67.0,-100.00,SSW,209,7.0,34.0,92,0.21,,,0.68,73.000000,,2013-05-31 21:33:00,
2013-05-31 17:43:00,69.0,67.0,-100.00,SSW,209,7.0,34.0,92,0.21,,,0.68,73.000000,,2013-05-31 21:43:00,
2013-05-31 17:54:00,69.0,67.0,-100.00,SSW,209,7.0,34.0,92,0.21,,,0.68,73.000000,,2013-05-31 21:54:00,
2013-05-31 18:22:00,68.0,67.0,-100.00,SW,217,4.0,21.0,95,0.11,,,0.79,48.000000,,2013-05-31 22:22:00,
2013-05-31 18:33:00,68.0,67.0,-100.00,SW,217,4.0,21.0,95,0.11,,,0.79,48.000000,,2013-05-31 22:33:00,
2013-05-31 18:42:00,68.0,67.0,-100.00,SW,217,4.0,21.0,95,0.11,,,0.79,48.000000,,2013-05-31 22:42:00,
2013-05-31 18:52:00,68.0,67.0,-100.00,SW,217,4.0,21.0,95,0.11,,,0.79,48.000000,,2013-05-31 22:52:00,
2013-05-31 20:12:00,72.0,69.0,-100.00,South,174,4.0,12.0,90,-99.99,,,0.84,121.000000,,2013-06-01 00:12:00,
2013-05-31 20:22:00,72.0,69.0,-100.00,South,174,4.0,12.0,90,-99.99,,,0.84,121.000000,,2013-06-01 00:22:00,
2013-05-31 20:32:00,72.0,69.0,-100.00,South,174,4.0,12.0,90,-99.99,,,0.84,121.000000,,2013-06-01 00:32:00,
2013-05-31 20:42:00,72.0,69.0,-100.00,South,174,4.0,12.0,90,-99.99,,,0.84,121.000000,,2013-06-01 00:42:00,
2013-05-31 20:52:00,72.0,69.0,-100.00,South,174,4.0,12.0,90,-99.99,,,0.84,121.000000,,2013-06-01 00:52:00,
2013-05-31 21:22:00,70.0,68.0,-100.00,SSE,154,3.0,8.0,94,0.00,,,0.84,19.000000,,2013-06-01 01:22:00,
2013-05-31 21:32:00,70.0,68.0,-100.00,SSE,154,3.0,8.0,94,0.00,,,0.84,19.000000,,2013-06-01 01:32:00,
2013-05-31 21:42:00,70.0,68.0,-100.00,SSE,154,3.0,8.0,94,0.00,,,0.84,19.000000,,2013-06-01 01:42:00,
2013-05-31 21:52:00,70.0,68.0,-100.00,SSE,154,3.0,8.0,94,0.00,,,0.84,19.000000,,2013-06-01 01:52:00,
2013-05-31 22:21:00,70.0,68.0,-100.00,SSE,150,3.0,7.0,95,0.00,,,0.84,0.000000,,2013-06-01 02:21:00,
2013-05-31 22:32:00,70.0,68.0,-100.00,SSE,150,3.0,7.0,95,0.00,,,0.84,0.000000,,2013-06-01 02:32:00,
2013-05-31 22:42:00,70.0,68.0,-100.00,SSE,150,3.0,7.0,95,0.00,,,0.84,0.000000,,2013-06-01 02:42:00,
2013-05-31 22:52:00,70.0,68.0,-100.00,SSE,150,3.0,7.0,95,0.00,,,0.84,0.000000,,2013-06-01 02:52:00,
2013-05-31 23:22:00,70.0,68.0,-100.00,SE,146,2.0,7.0,92,0.00,,,0.84,0.000000,,2013-06-01 03:22:00,
2013-05-31 23:33:00,70.0,68.0,-100.00,SE,146,2.0,7.0,92,0.00,,,0.84,0.000000,,2013-06-01 03:33:00,
2013-05-31 23:43:00,70.0,68.0,-100.00,SE,146,2.0,7.0,92,0.00,,,0.84,0.000000,,2013-06-01 03:43:00,
2013-05-31 23:53:00,70.0,68.0,-100.00,SE,146,2.0,7.0,92,0.00,,,0.84,0.000000,,2013-06-01 03:53:00,